www.pogodaiklimat.ru
ПОГОДА в Карансебеше

Архив погоды в Карансебеше (Румыния)

Время
(UTC), дата
16 15.07
17 15.07
18 15.07
19 15.07
20 15.07
21 15.07
22 15.07
23 15.07
00 16.07
01 16.07
02 16.07
03 16.07
04 16.07
05 16.07
06 16.07
07 16.07
08 16.07
09 16.07
10 16.07
11 16.07
12 16.07
13 16.07
14 16.07
15 16.07
16 16.07
17 16.07
18 16.07
19 16.07
20 16.07
21 16.07
22 16.07
23 16.07
00 17.07
01 17.07
02 17.07
03 17.07
04 17.07
05 17.07
06 17.07
07 17.07
08 17.07
09 17.07
10 17.07
11 17.07
12 17.07
13 17.07
14 17.07
15 17.07
16 17.07
17 17.07
18 17.07
19 17.07
20 17.07
21 17.07
22 17.07
23 17.07
00 18.07
01 18.07
02 18.07
03 18.07
04 18.07
05 18.07
06 18.07
07 18.07
08 18.07
09 18.07
10 18.07
11 18.07
12 18.07
13 18.07
14 18.07
15 18.07
16 18.07
17 18.07
18 18.07
19 18.07
20 18.07
21 18.07
22 18.07
23 18.07
00 19.07
01 19.07
02 19.07
03 19.07
04 19.07
05 19.07
06 19.07
07 19.07
08 19.07
09 19.07
10 19.07
11 19.07
12 19.07
13 19.07
14 19.07
15 19.07
16 19.07
17 19.07
18 19.07
19 19.07
20 19.07
21 19.07
22 19.07
23 19.07
00 20.07
01 20.07
02 20.07
03 20.07
04 20.07
05 20.07
06 20.07
07 20.07
08 20.07
09 20.07
10 20.07
11 20.07
12 20.07
13 20.07
14 20.07
15 20.07
16 20.07
17 20.07
18 20.07
19 20.07
20 20.07
21 20.07
22 20.07
23 20.07
00 21.07
01 21.07
02 21.07
03 21.07
04 21.07
05 21.07
06 21.07
07 21.07
08 21.07
09 21.07
10 21.07
11 21.07
12 21.07
13 21.07
14 21.07
15 21.07
16 21.07
17 21.07
18 21.07
19 21.07
20 21.07
21 21.07
22 21.07
23 21.07
00 22.07
01 22.07
02 22.07
03 22.07
04 22.07
05 22.07
06 22.07
07 22.07
08 22.07
09 22.07
10 22.07
11 22.07
12 22.07
13 22.07
14 22.07
15 22.07
Ветер
(напр.,м/с)
Видим. Явления Облачность Т
(С)
Тd
(С)
f
(%)
Тe
(С)
Тes
(С)
Комфортность P
(гПа)
Po
(гПа)
Тmin
(С)
Tmax
(С)
R
(мм)
R24
(мм)
S
(см)
З 2-5 {5} 20 км 4/4 600 м
[Cb calv]
+33.0 +17.9 41 +37 +39 очень душно 1011.2 984.2
В 1-2 {3} 20 км 4/4 600 м
[Cb calv]
+31.4 +20.1 51 +38 +38 очень душно 1011.4 984.3
ЮВ 1-2 {3} 20 км 4/4 600 м
[Cb calv]
+30.3 +20.8 57 +38 +38 очень душно 1011.9 984.7 +27.2 +37.3
В 1-3 {3} 20 км 3/3 600 м
[Cb calv]
+27.4 +22.0 72 +35 +35 очень душно 1012.1 984.6
СВ 1-2 {3} 20 км ясно +25.6 +20.9 75 +32 +32 очень душно 1012.7 985.0
ЮВ 3-4 {4} 20 км ясно +23.7 +18.7 74 +28 +28 душно 1012.9 985.1
В 2-3 {3} 20 км ясно +22.8 +17.8 73 +28 +28 душно 1013.3 985.4
ЮВ 1-2 {2} 20 км ясно +22.6 +17.0 71 +27 +27 душно 1013.3 985.3
В 2-4 {4} 20 км ясно +22.7 +16.0 66 +27 +27 душно 1013.0 985.0
ЮВ 3-4 {4} 20 км ясно +21.5 +16.1 71 +25 +25 комфорт 1012.8 984.8
штиль 0-1 {4} 20 км ясно +21.3 +15.9 71 +25 +25 комфорт 1013.0 984.9
ЮВ 2-3 {3} 20 км ясно +20.3 +15.8 75 +24 +24 комфорт 1013.2 985.0
В 1-1 {3} 20 км ясно +20.6 +15.7 73 +25 +25 комфорт 1013.4 985.2
ЮВ 1-2 {2} 20 км ясно +21.2 +16.3 74 +25 +28 комфорт 1013.9 985.8
ЮВ 1-2 {2} 20 км ясно +25.0 +17.5 63 +29 +36 душно 1013.7 985.9 +19.8 +30.3
В 2-4 {4} 20 км 1/1 600 м
[Cu hum]
+29.7 +16.1 44 +33 +41 душно 1013.3 986.0
ЮВ 3-5 {6} 20 км 1/1 600 м
[Cu hum]
+33.1 +16.8 38 +36 +46 очень душно 1012.7 985.7
Ю 4-7 {7} 20 км ясно +35.1 +12.9 26 +35 +46 очень жарко 1012.4 985.6
Ю 4-8 {8} 20 км ясно +36.2 +12.4 24 +36 +48 очень жарко 1012.1 985.4
Ю 4-6 {8} 20 км ясно +37.0 +14.2 26 +38 +50 душно 1011.7 985.0
Ю 4-8 {9} 20 км 1/1 600 м
[Cu med, cong]
+37.2 +13.0 24 +37 +47 очень жарко 1011.2 984.6
Ю 5-8 {8} 20 км 1/1 600 м
[Cu med, cong]
+37.6 +13.4 24 +38 +44 очень жарко 1010.7 984.1
Ю 5-8 {9} 20 км 3/3 600 м
[Cu med, cong]
+37.6 +12.6 22 +37 +41 очень жарко 1010.5 983.9
Ю 4-7 {8} 20 км 3/3 600 м
[Cu med, cong]
+37.4 +13.6 24 +38 +40 душно 1010.3 983.8
Ю 3-6 {7} 20 км 1/1 600 м
[Cu med, cong]
+36.9 +14.1 26 +38 +40 очень душно 1010.0 983.3
ЮВ 1-2 {5} 20 км ясно +36.1 +15.4 29 +38 +38 очень душно 1010.1 983.4
В 1-3 {3} 20 км ясно +32.2 +20.0 49 +39 +39 очень душно 1010.8 983.7 +25.1 +38.1
ЮВ 2-3 {3} 20 км ясно +28.9 +18.8 54 +34 +34 очень душно 1011.7 984.3
ЮВ 2-3 {4} 20 км ясно +26.7 +17.6 57 +31 +31 душно 1012.4 984.8
В 2-3 {5} 20 км ясно +25.6 +17.5 61 +30 +30 душно 1013.0 985.3
Ю 3-7 {8} 20 км ясно +29.1 +16.0 45 +32 +32 душно 1012.6 985.3
В 2-4 {6} 20 км ясно +26.6 +16.4 54 +30 +30 душно 1012.8 985.2
В 2-4 {4} 20 км ясно +25.7 +16.0 55 +29 +29 душно 1012.9 985.2
В 1-2 {5} 20 км ясно +23.5 +16.2 64 +27 +27 душно 1013.0 985.1
В 2-3 {3} 20 км ясно +23.0 +16.0 65 +27 +27 душно 1013.1 985.1
В 1-3 {3} 20 км 1/0
[Ac trans]
+22.3 +16.0 68 +26 +26 жарко 1013.3 985.3
В 1-2 {3} 20 км 1/0
[Ac trans]
+23.6 +16.1 63 +27 +28 жарко 1013.6 985.7
СЗ 1-2 {2} 20 км 3/0
[Ac lent]
+24.0 +17.3 66 +28 +30 душно 1014.0 986.1
В 2-3 {3} 20 км 3/3 600 м
[Cu hum]
+28.7 +18.1 53 +33 +37 очень душно 1013.7 986.3 +22.2 +32.0
ЮВ 3-6 {6} 20 км 3/3 600 м
[Cu hum]
+30.9 +16.7 43 +34 +40 душно 1013.9 986.6
ЮВ 4-6 {7} 20 км 3/3 600 м
[Cu hum]
+32.7 +17.9 41 +37 +43 очень душно 1013.8 986.7
ЮВ 4-7 {8} 20 км 3/3 600 м
[Cu med, cong]
+33.7 +17.9 39 +38 +45 очень душно 1013.6 986.6
ЮВ 3-6 {6} 20 км 4/4 600 м
[Cu med, cong]
+35.3 +17.6 35 +39 +48 очень душно 1013.7 986.8
ЮВ 3-5 {6} 20 км 4/4 600 м
[Cu med, cong]
+36.4 +16.4 31 +39 +48 очень душно 1013.5 986.7
ЮВ 3-5 {6} 20 км 5/5 600 м
[Cb calv]
+36.8 +16.9 31 +39 +46 очень душно 1012.9 986.2
В 2-3 {5} 20 км 5/5 600 м
[Cb calv]
+37.2 +16.7 30 +40 +46 очень душно 1012.3 985.7
СВ 4-6 {6} 20 км 6/6 600 м
[Cb calv]
+36.4 +16.7 31 +39 +41 очень душно 1012.3 985.6
С 3-5 {12} 20 км гроза, ливневой дождь 8/8 600 м
[Cb cap]
+27.5 +24.0 81 +38 +39 очень душно 1013.2 985.7 6
Ю 1-2 {5} 15 км в посл. час ливневой дождь {гроза} 8/8 600 м
[Cb cap]
+30.5 +23.1 65 +41 +41 очень душно 1012.6 985.3 0.1
Ю 3-5 {8} 20 км 6/5 600 м
[Cb calv Ci ing]
+30.1 +18.7 50 +35 +35 очень душно 1013.9 986.5
В 2-4 {6} 20 км {гроза, ливн. дождь} 6/5 600 м
[Cb calv Ci ing]
+27.2 +18.6 59 +32 +32 очень душно 1014.2 986.6 +25.1 +37.9 0.1
В 2-4 {5} 20 км 8/8 600 м
[Cb calv]
+26.2 +17.5 59 +30 +30 душно 1015.0 987.3
Ю 1-2 {4} 20 км гроза без осадков 8/8 600 м
[Cb cap]
+25.1 +17.9 64 +29 +29 душно 1016.0 988.1
В 1-3 {3} 20 км в посл. час гроза 6/5 600 м
[Cb cap Ci ing]
+22.6 +18.4 77 +28 +28 душно 1016.2 988.2
ЮВ 3-5 {6} 20 км 5/3 600 м
[Sc diur, vesp Ac cuf Ci ing]
+22.4 +17.9 76 +27 +27 душно 1016.0 987.9
ЮВ 2-3 {5} 20 км 3/1 600 м
[Sc diur, vesp Ci ing]
+21.8 +17.3 76 +26 +26 душно 1015.9 987.8
В 2-3 {4} 20 км {гроза} ясно +22.3 +16.6 70 +27 +27 душно 1016.0 988.0
ЮВ 3-4 {4} 20 км зарница 3/3 600 м
[Cb cap]
+20.6 +16.8 79 +24 +24 комфорт 1015.7 987.4
СВ 1-2 {4} 20 км зарница 6/6 600 м
[Cb cap]
+21.6 +16.9 75 +26 +26 душно 1015.7 987.6
СЗ 2-3 {4} 20 км зарница 8/8 600 м
[Cb cap]
+21.1 +17.4 79 +25 +25 комфорт 1016.6 988.4
З 1-4 {12} 3100 м гроза, ливневой дождь 10/10 600 м
[Cb cap]
+23.4 +18.4 74 +30 +30 очень душно 1019.6 991.5 0.2
ЮВ 2-6 {11} 20 км гроза, ливневой дождь 9/9 600 м
[Cb cap]
+20.8 +18.9 89 +26 +26 душно 1019.4 991.0 13
ЮЗ 2-4 {6} 20 км гроза без осадков {ливн. дождь} 9/9 600 м
[Cb cap]
+21.4 +18.9 86 +26 +27 душно 1018.4 990.2 +19.7 +27.3 14 19.6
СВ 2-4 {5} 20 км в посл. час гроза 9/5 600 м
[Cb cap Ac cuf Ci ing]
+22.3 +18.7 80 +28 +30 душно 1018.6 990.4
Ю 3-6 {6} 20 км 8/8 600 м
[Cb calv]
+23.9 +20.7 82 +30 +32 очень душно 1018.1 990.1
СВ 4-6 {6} 20 км {гроза} 8/8 600 м
[Cb calv]
+26.2 +18.6 63 +31 +33 очень душно 1018.2 990.4
С 1-2 {5} 20 км 6/5 600 м
[Cb calv Ac cuf]
+29.1 +19.0 54 +34 +43 очень душно 1017.3 989.8
С 2-4 {5} 20 км 4/3 600 м
[Cb calv Ac cuf]
+30.1 +17.8 48 +35 +46 очень душно 1017.0 989.6
С 3-5 {6} 20 км {гроза} 4/1 600 м
[Cb calv Ci sp]
+31.1 +19.6 50 +37 +48 очень душно 1016.6 989.3
С 2-4 {5} 20 км 4/3 600 м
[Cb calv Ci sp]
+32.4 +20.7 50 +39 +48 очень душно 1016.0 988.9
СЗ 2-5 {5} 20 км 4/3 600 м
[Cb calv Ci sp]
+33.1 +20.2 47 +40 +46 очень душно 1015.6 988.5
СЗ 2-4 {5} 20 км 4/3 600 м
[Cb cap Ci ing]
+33.8 +18.3 40 +38 +42 очень душно 1015.0 988.0
С 2-4 {5} 20 км 4/1 600 м
[Cb calv Ci ing]
+33.4 +18.4 41 +38 +40 очень душно 1014.9 987.8
СВ 1-3 {4} 20 км 3/1 600 м
[Cb calv Ci ing]
+32.2 +20.6 50 +39 +40 очень душно 1015.2 988.0
С 2-4 {4} 20 км 3/1 600 м
[Cb calv Ci sp]
+29.7 +19.9 56 +36 +36 очень душно 1015.8 988.4 +20.9 +34.2
ЮВ 1-2 {4} 20 км 3/1 600 м
[Sc diur, vesp Ac cuf]
+27.1 +20.7 68 +34 +34 очень душно 1016.8 989.2
ЮВ 2-2 {2} 20 км 1/0
[Ci fib]
+24.5 +19.8 75 +30 +30 очень душно 1017.2 989.3
В 2-3 {3} 20 км 3/0
[Ac trans]
+23.1 +19.7 81 +30 +30 очень душно 1017.1 989.1
СВ 1-1 {2} 20 км 1/0
[Ac trans]
+22.3 +19.1 82 +28 +28 душно 1016.9 988.8
С 1-1 {2} 19 км ясно +21.9 +19.7 87 +27 +27 душно 1017.2 989.0
ЮВ 2-2 {3} 20 км ясно +20.9 +19.1 89 +26 +26 душно 1017.3 989.1
В 2-2 {2} 20 км ясно +20.6 +18.5 88 +25 +25 комфорт 1017.1 988.8
ЮВ 2-3 {3} 20 км ясно +21.6 +17.9 79 +26 +26 душно 1016.8 988.6
ЮВ 1-2 {3} 18 км ясно +19.5 +17.9 90 +23 +23 комфорт 1016.8 988.4
ЮВ 1-2 {3} 20 км ясно +21.0 +17.4 80 +26 +27 душно 1017.0 988.8
ЮВ 1-2 {3} 20 км 1/0
[Ac cast]
+22.8 +17.7 73 +28 +31 душно 1017.0 989.0
ЮВ 1-3 {3} 20 км 1/0
[Ac trans]
+25.1 +18.2 66 +30 +36 душно 1016.8 989.0 +19.3 +29.6
В 1-2 {3} 20 км ясно +27.3 +18.8 60 +32 +43 очень душно 1016.5 988.9
Ю 1-2 {3} 20 км 1/0
[Ac trans]
+29.6 +19.4 54 +35 +50 очень душно 1016.3 988.8
С 1-3 {3} 20 км 1/0
[Ac trans]
+31.1 +18.6 47 +36 +54 опасность солнечного удара 1015.9 988.6
С 2-4 {4} 20 км 1/1 600 м
[Cu med, cong]
+31.7 +18.2 45 +36 +53 опасность солнечного удара 1015.7 988.4
Ю 1-4 {5} 20 км 3/3 600 м
[Cu med, cong]
+33.2 +19.8 45 +39 +54 опасность солнечного удара 1015.0 987.9
С 2-4 {4} 20 км 4/4 600 м
[Cb calv]
+32.6 +18.9 44 +38 +47 очень душно 1014.4 987.3
Ю 2-4 {4} 20 км 4/4 600 м
[Cb calv]
+31.9 +18.8 46 +37 +45 очень душно 1014.1 987.0
Ю 2-2 {4} 20 км 5/5 600 м
[Cb calv]
+30.8 +21.9 59 +39 +44 очень душно 1013.9 986.7
Ю 1-2 {4} 20 км в посл. час ливневой дождь 5/5 600 м
[Cb calv]
+28.4 +23.5 75 +39 +42 очень душно 1013.0 985.6 0.8
Ю 2-3 {3} 20 км в посл. час ливневой дождь 5/5 600 м
[Cb calv]
+30.2 +24.0 69 +42 +43 очень душно 1012.6 985.4 0.0
СВ 2-4 {4} 20 км 4/4 600 м
[Cb calv]
+29.7 +21.1 60 +37 +38 очень душно 1012.4 985.1
СЗ 1-3 {4} 20 км {ливн. дождь} 1/1 600 м
[Cb calv]
+28.1 +20.3 63 +35 +35 очень душно 1012.8 985.4 +25.0 +33.7 0.0
СЗ 1-3 {3} 20 км ясно +25.7 +20.3 72 +32 +32 очень душно 1013.3 985.6
ЮВ 2-3 {3} 18 км ясно +23.3 +21.0 87 +31 +31 очень душно 1013.6 985.7
СВ 1-1 {2} 16 км ясно +22.9 +21.0 89 +30 +30 очень душно 1013.5 985.5
штиль 0-1 {2} 16 км ясно +22.3 +20.6 90 +29 +29 очень душно 1013.6 985.5
штиль 0-1 {2} 17 км 1/0
[Ac trans]
+21.7 +19.8 89 +27 +27 душно 1013.4 985.3
штиль 0-1 {2} 14 км 1/0
[Ac trans]
+21.3 +19.9 92 +26 +26 душно 1013.1 985.0
В 1-2 {2} 11 км 1/0
[Ac trans]
+20.6 +19.6 94 +26 +26 душно 1012.9 984.7
штиль 0-1 {2} 11 км ясно +20.5 +19.6 95 +24 +24 комфорт 1012.3 984.2
ЮВ 1-2 {2} 9000 м дымка 4/4 600 м
[Cb calv]
+20.3 +19.7 96 +25 +25 комфорт 1012.1 984.0
В 1-2 {2} 10 км 5/5 600 м
[Cb calv]
+20.1 +19.4 96 +25 +25 комфорт 1012.0 983.8
В 1-2 {2} 18 км 4/4 600 м
[Cb calv]
+22.3 +19.9 86 +28 +30 душно 1011.5 983.5
ЮВ 1-2 {4} 20 км 8/8 600 м
[Cb calv]
+23.4 +19.9 81 +30 +32 очень душно 1011.2 983.4 +19.7 +28.0 0.8
Ю 2-3 {4} 20 км 6/6 600 м
[Cb calv]
+25.3 +20.4 74 +31 +35 очень душно 1010.7 983.1
Ю 4-8 {8} 20 км 5/5 600 м
[Cb calv]
+29.0 +18.8 54 +34 +39 очень душно 1009.9 982.6
Ю 3-6 {9} 20 км 9/9 600 м
[Cb calv]
+29.0 +17.6 50 +33 +34 очень душно 1009.9 982.6
З 4-9 {12} 3200 м гроза, ливневой дождь 10/10 600 м
[Cb cap]
+20.7 +20.1 96 +25 +25 комфорт 1013.1 985.0 10
СВ 1-3 {9} 8000 м гроза, ливневой дождь 10/10 600 м
[Cb cap]
+20.6 +20.2 98 +26 +26 душно 1013.0 984.8 7
Ю 2-3 {3} 11 км слаб. ливневой дождь, в посл. час гроза 9/9 600 м
[Cb cap]
+20.5 +20.2 98 +26 +27 душно 1011.6 983.4 20
штиль 0-2 {3} 18 км гроза, ливневой дождь 10/10 600 м
[Cb cap]
+21.3 +20.7 96 +27 +27 душно 1011.8 983.7 0.0
ЮВ 1-3 {7} 20 км гроза, ливневой дождь 10/10 600 м
[Cb cap]
+21.1 +20.1 94 +26 +26 душно 1010.2 982.1 2
В 1-2 {3} 20 км в посл. час гроза {ливн. дождь} 9/9 600 м
[Cb cap]
+23.5 +20.2 82 +29 +30 душно 1009.3 981.5 2
штиль 0-2 {2} 20 км 9/9 600 м
[Cb cap]
+23.7 +20.4 82 +29 +30 душно 1008.7 980.9
З 1-2 {3} 20 км гроза без осадков 10/10 600 м
[Cb cap]
+23.3 +20.4 84 +31 +31 очень душно 1008.5 980.7
З 3-8 {12} 4300 м гроза, ливневой дождь 10/10 600 м
[Cb cap]
+21.3 +19.8 91 +26 +26 душно 1010.8 982.7 +19.8 +29.9 1
В 2-5 {8} 9000 м гроза, ливневой дождь 10/10 600 м
[Cb cap]
+20.4 +20.0 98 +25 +25 комфорт 1011.6 983.5 3
Ю 4-7 {7} 13 км гроза, ливневой дождь 10/10 600 м
[Cb cap]
+19.7 +19.3 98 +23 +23 комфорт 1010.8 982.6 3
ЮВ 3-5 {6} 20 км слаб. ливневой дождь, в посл. час гроза 10/10 600 м
[Cb cap]
+19.8 +19.3 97 +23 +23 комфорт 1010.0 981.8 6
СВ 3-4 {5} 20 км в посл. час ливневой дождь 10/10 600 м
[Cb calv]
+19.7 +18.7 94 +23 +23 комфорт 1009.3 981.2 0.0
ЮВ 2-3 {4} 19 км 10/10 600 м
[Cb calv]
+19.0 +18.3 96 +21 +21 комфорт 1010.3 982.1
В 1-3 {4} 20 км {гроза, ливн. дождь} 10/10 600 м
[Cb calv]
+19.7 +18.2 91 +23 +23 комфорт 1010.3 982.2 0.0
В 1-2 {4} 20 км 10/10 600 м
[Cb calv]
+19.2 +17.7 91 +22 +22 комфорт 1010.0 981.8
ЮВ 4-7 {7} 1600 м гроза, ливневой дождь 10/10 600 м
[Cb cap]
+18.4 +18.0 98 +19 +19 1010.1 981.8 11
СЗ 1-1 {6} 20 км в посл. час гроза {ливн. дождь} 10/10 600 м
[Cb cap]
+18.5 +18.3 99 +20 +20 1009.8 981.5 13
Ю 1-2 {2} 18 км в посл. час ливневой дождь 10/10 600 м
[Cb calv]
+18.3 +18.2 99 +20 +20 1009.7 981.4 0.3
В 1-2 {2} 20 км 8/5 600 м
[Cb calv Ac cuf]
+18.8 +18.6 99 +21 +22 комфорт 1009.8 981.5
Ю 2-3 {3} 20 км {гроза, ливн. дождь} 6/4 600 м
[Cb calv Ac cuf Ci ing]
+20.2 +19.8 98 +25 +27 комфорт 1010.1 982.0 +18.3 +21.3 0.3 41.9
ЮВ 1-3 {3} 20 км 8/8 600 м
[Cb calv]
+21.9 +19.6 87 +27 +30 душно 1010.1 982.2
штиль 0-2 {3} 20 км 8/8 600 м
[Cb calv]
+24.1 +18.9 73 +29 +32 душно 1009.7 981.9
Ю 3-5 {5} 20 км 9/9 600 м
[Cb calv]
+24.0 +19.7 77 +29 +31 душно 1009.8 982.0
Ю 2-3 {6} 20 км 9/9 600 м
[Cb calv]
+22.9 +19.3 80 +29 +31 очень душно 1010.0 982.1
ЮВ 2-3 {3} 20 км 8/6 600 м
[Cb calv Ac cuf]
+23.8 +20.5 82 +30 +34 очень душно 1009.7 981.9
ЮЗ 2-4 {4} 20 км 9/9 600 м
[Cb calv]
+24.8 +19.9 74 +30 +32 душно 1009.5 981.9
ЮВ 2-3 {5} 20 км слаб. ливневой дождь 9/9 600 м
[Cb calv]
+23.5 +20.8 85 +29 +31 душно 1009.6 981.8 0.2
ЮВ 2-3 {5} 20 км в посл. час ливневой дождь 8/8 600 м
[Cb calv]
+23.4 +21.2 87 +31 +33 очень душно 1009.5 981.7 4
ЮВ 2-3 {4} 20 км {ливн. дождь} 6/5 600 м
[Cb calv Ac cuf]
+25.4 +20.6 75 +32 +34 очень душно 1009.0 981.4 4
СВ 1-2 {3} 20 км 8/5 600 м
[Cb calv Ac cuf]
+25.4 +20.5 74 +31 +32 очень душно 1009.1 981.5
Ю 1-3 {13} 8000 м слаб. ливневой дождь 10/10 600 м
[Cb calv]
+20.6 +20.2 98 +26 +26 душно 1010.3 982.2 4
Ю 2-3 {3} 9000 м дымка {ливн. дождь} 8/5 600 м
[Cb calv Ac cuf]
+20.8 +20.4 98 +26 +26 душно 1009.9 981.9 +19.9 +26.1 4
В 1-2 {2} 12 км 8/5 600 м
[Cb calv Ac cuf]
+20.8 +20.4 98 +27 +27 душно 1010.2 982.2
ЮВ 1-2 {2} 8000 м дымка 3/3 600 м
[Sc diur, vesp]
+20.1 +19.7 98 +25 +25 комфорт 1010.5 982.4
В 1-2 {3} 7000 м дымка ясно +19.2 +18.9 98 +22 +22 комфорт 1010.7 982.5
В 1-2 {3} 9000 м дымка ясно +18.7 +18.2 97 +21 +21 комфорт 1010.8 982.5
В 1-2 {2} 7000 м дымка ясно +18.2 +17.8 98 +20 +20 1011.4 983.0
В 1-2 {2} 4800 м дымка ясно +17.6 +17.2 98 +19 +19 1011.6 983.2
В 1-2 {2} 9000 м дымка 3/0
[Ac trans]
+17.3 +16.9 97 +18 +18 1011.8 983.3
ЮВ 1-2 {3} 11 км 3/0
[Ci sp]
+17.3 +16.8 97 +18 +18 1011.5 983.1
ЮВ 1-2 {2} 5000 м дымка 3/0
[Ci sp]
+16.8 +16.3 97 +18 +18 1011.5 983.0
ЮВ 1-2 {2} 11 км 3/0
[Ci sp]
+16.9 +16.5 97 +18 +18 1011.3 982.9
В 1-2 {2} 15 км ясно +18.5 +17.7 95 +20 +23 1011.3 983.0
Ю 1-1 {1} 20 км ясно +21.0 +18.4 85 +26 +33 душно 1011.5 983.4 +16.8 +21.0 7.5
ЮВ 1-2 {2} 20 км 1/1 600 м
[Cu hum]
+23.0 +19.8 82 +30 +39 очень душно 1011.2 983.3
СЗ 1-2 {2} 20 км 3/3 600 м
[Cu med, cong]
+25.8 +19.2 67 +31 +42 очень душно 1010.9 983.3
С 2-3 {3} 20 км 3/3 600 м
[Cu med, cong]
+27.2 +19.7 64 +33 +44 очень душно 1011.0 983.5
С 2-5 {5} 20 км 4/4 600 м
[Cu med, cong]
+28.1 +20.4 63 +35 +45 очень душно 1011.1 983.7
С 3-6 {7} 20 км 6/4 600 м
[Cb cap Ci ing]
+28.3 +17.2 51 +32 +41 душно 1011.0 983.6
СЗ 4-6 {6} 20 км 6/3 600 м
[Cb cap Ci ing]
+29.2 +17.4 49 +33 +40 очень душно 1010.6 983.3
СЗ 3-5 {7} 20 км 6/4 600 м
[Cb calv Ci ing]
+29.6 +17.9 49 +34 +40 очень душно 1010.3 983.0
СЗ 3-6 {6} 20 км 5/4 600 м
[Cb calv Ci ing]
+29.8 +18.5 51 +35 +39 очень душно 1010.2 982.9
СЗ 3-6 {7} 20 км 8/4 600 м
[Cb calv Cs]
+29.3 +17.2 48 +33 +36 душно 1010.1 982.9
Местоположение метеостанции Карансебеш (Румыния): широта 45.42 долгота 22.25 высота над уровнем моря 242 м.
В архиве по умолчанию представлена погода в Карансебеше за последнюю неделю. Архивные данные за месяц целиком и за предыдущие месяцы, начиная с января 2011 года, Вы можете получить, выбрав интересующий диапазон дат из раскрывающегося списка и нажав кнопку "Найти!".
*Определитесь, кто Вы:
Внимание! Время в таблицах - всемирное. Для получения местного времени необходимо прибавить поправку, которая равна 2 ч.
Некоторые строки с данными для отдельных станций могут быть выделены курсивом. Это означает, что фактические данные отсутствуют по различным причинам, а приведенные значения являются расчетными модельными данными для данного пункта наблюдений.
Смотрите также архив погоды в соседних городах и на ближайших метеорологических станциях:
Партнеры нашего сайта:      
Пояснения к столбцам:
  • Ветер - указаны скорость ветра в м/с - средняя за 10 мин, порывы в срок и между сроками (в фигурных скобках) и направление, откуда дует ветер: С - северный,
  • СВ - северо-восточный, В - восточный, ЮВ - юго-восточный, Ю - южный, ЮЗ - юго-западный, З - западный, СЗ - северо-западный.
  • Видимость - горизонтальная дальность видимости в метрах или километрах. При видимости от 1 до 10 км при отсутствии осадков обычно наблюдается дымка, при ухудшении видимости до 1 км и менее - туман. В сухую погоду видимость может ухудшаться дымом, пылью или мглою.
  • Явления - указаны атмосферные явления, наблюдавшиеся в срок или в последний час перед сроком; фигурными скобками обозначены явления, наблюдавшиеся между сроками (за 1-3 часа до срока); квадратными скобками обозначены град или гололедные отложения с указанием их диаметра в мм.
  • Облачность - указаны через наклонную черту общая и нижняя облачность в баллах и высота нижней границы облаков в метрах; квадратными скобками обозначены формы облаков: Ci - перистые, Cs - перисто-слоистые, Cc - перисто-кучевые, Ac - высококучевые, As - высокослоистые, Sc - слоисто-кучевые, Ns - слоисто-дождевые, Cu - кучевые, Cb - кучево-дождевые. Подробнее классификацию облаков см. в Атласе облаков (PDF).
  • T - Температура воздуха - температура, измеренная на высоте 2 м над землей.
  • Td - Температура точки росы - температура, при понижении до которой содержащийся в воздухе водяной пар достигнет насыщения.
  • f - Относительная влажность воздуха - влажноcть воздуха, измеренная на высоте 2 м над землей.
  • Te - Эффективная температура - температура, которую ощущает одетый по сезону человек в тени. Характеристика душности погоды. При расчете учитывается влияние влажности воздуха и скорости ветра на теплоощущения человека.
  • Tes - Эффективная температура на солнце - температура, которую ощущает человек, с поправкой на солнечный нагрев. Характеристика знойности погоды. Зависит от высоты солнца над горизонтом, облачности и скорости ветра. Ночью, в пасмурную погоду, а также при ветре 12 м/с и более поправка равна нулю.
  • P - Атмосферное давление - приведенное к уровню моря атмосферное давление.
  • Po - Атмосферное давление - измеренное на уровне метеостанции атмосферное давление.
  • Tmin - Минимальная температура - минимум температуры воздуха на высоте 2 м над землей.
  • Tmax - Максимальная температура - максимум температуры воздуха на высоте 2 м над землей.
  • R - Количество осадков - Количество выпавших осадков за период времени, мм. При наведении курсора мыши на число - период времени, за который выпало указанное количество осадков.
  • R24 - Количество осадков - Количество выпавших осадков за 24 часа, мм.
  • S - Снежный покров - Высота снежного покрова, см. При наведении курсора мыши на число - состояние снежного покрова и степень покрытия местности в баллах.